Flag for U.S.A. Weather past 2 weeks in Memphis, Tennessee, U.S.A.

Now
77 °F

Passing clouds.


Feels Like: 78 °F
Forecast: 57 / 74 °F
Wind: 13 mph from Northeast

Location: Memphis International Airport

Current Time: Sep 22, 2014 at 5:26:32 PM

Latest Report: Sep 22, 2014 at 4:54 PM


Visibility: 10 mi

Pressure: 30.14 "Hg

Humidity: 39%

Dew point: 50 °F

Location of MemphisLocation

Historic Weather in Memphis — Graph

°F

Memphis temperature yesterday

Maximum temperature yesterday: 89 °F (at 1:54 PM)
Minimum temperature yesterday: 70 °F (at 11:54 PM)
Average temperature yesterday: 79 °F

Past Weeks' High & Low Weather Summary

 TemperatureHumidityPressure
High93 °F (Sep 10, 3:54 PM)94% (Sep 11, 7:04 AM)30.27 "Hg (Sep 11, 7:04 AM)
Low58 °F (Sep 14, 4:54 AM)37% (Sep 22, 3:54 PM)29.81 "Hg (Sep 10, 5:54 PM)
Average74 °F70%30.04 "Hg
* Reported Sep 7 3:54 PM — Sep 22 3:54 PM, Memphis, Weather by CustomWeather, © 2014

Note: Actual official high and low records may vary slightly from our data, if they occured in-between our weather recording intervals... More about our weather records

Advertising

Memphis weather history for previous 24 hours

 ConditionsComfort  
Time TempWeatherWind HumidityBarometerVisibility
3:54 PM
Sep 22
77 °FPassing clouds.15 mph37%30.15 "Hg10 mi
2:54 PM77 °FPassing clouds.7 mph40%30.17 "Hg10 mi
1:54 PM77 °FPassing clouds.6 mph42%30.19 "Hg10 mi
12:54 PM75 °FPassing clouds.9 mph43%30.20 "Hg10 mi
11:54 AM73 °FPassing clouds.12 mph46%30.22 "Hg10 mi
10:54 AM72 °FPassing clouds.12 mph49%30.21 "Hg10 mi
9:54 AM69 °FSunny.9 mph55%30.21 "Hg10 mi
8:54 AM66 °FSunny.8 mph61%30.21 "Hg10 mi
7:54 AM63 °FSunny.9 mph68%30.19 "Hg10 mi
6:54 AM61 °FSunny.8 mph70%30.17 "Hg10 mi
5:54 AM62 °FClear.7 mph67%30.15 "Hg10 mi
4:54 AM64 °FClear.7 mph63%30.13 "Hg10 mi
3:54 AM65 °FClear.10 mph59%30.11 "Hg10 mi
2:54 AM67 °FClear.13 mph55%30.09 "Hg10 mi
1:54 AM68 °FClear.13 mph53%30.09 "Hg10 mi
12:54 AM70 °FClear.14 mph49%30.09 "Hg10 mi
11:54 PM
Sep 21
70 °FClear.9 mph49%30.08 "Hg10 mi
10:54 PM72 °FPassing clouds.6 mph48%30.06 "Hg10 mi
9:54 PM75 °FPassing clouds.7 mph43%30.05 "Hg10 mi
8:54 PM77 °FPassing clouds.13 mph44%30.03 "Hg10 mi
7:54 PM81 °FPartly cloudy.18 mph51%30.00 "Hg10 mi
6:54 PM82 °FScattered clouds.8 mph58%29.97 "Hg10 mi
5:54 PM85 °FScattered clouds.12 mph51%29.96 "Hg10 mi
Weather by CustomWeather, © 2014

See weather overviewHow to use our weather pages